Regional Weather Roundup
Issued by NWS Spokane, WA

Home | Current Version | Previous Version | Text Only | Print | Product List | Glossary On
Versions: 1 2 3 4 5 6 7 8 9 10 11 12 13 14 15 16 17 18 19 20 21 22 23 24 25 26 27 28 29 30 31 32 33 34 35 36 37 38 39 40 41 42 43 44 45 46 47 48 49 50
000
NZUS01 KOTX 271300
RWROTX
EASTERN WASHINGTON/NORTHERN IDAHO ROUNDUP
NATIONAL WEATHER SERVICE, SPOKANE WA
500 AM PST SAT DEC 27 2014

Note: "fair" indicated few or no clouds below 12,000 feet with no
significant weather and/or obstructions to visibility.

...NORTHEAST WASHINGTON AND NORTHERN IDAHO PANHANDLE...

CITY           SKY/WX    TMP DP  RH WIND       PRES   REMARKS
SPOKANE INTL   CLOUDY    30  27  88 S5        30.17F WCI  25
SPOKANE DOWNTO CLOUDY    29  26  89 CALM      30.21F
COEUR D ALENE  CLOUDY    30  27  86 S6        30.18F WCI  24
DEER PARK      CLOUDY    28  27  96 CALM      30.20F
SANDPOINT      CLOUDY    30  30 100 S7        30.20F WCI  23

...SOUTHEAST WASHINGTON AND SOUTHERN IDAHO PANHANDLE...

CITY           SKY/WX    TMP DP  RH WIND       PRES   REMARKS
WALLA WALLA    CLOUDY    41  30  65 S12       30.25F
PULLMAN/MOSCOW FLURRIES  30  25  81 E8        30.22S WCI  22
LOWELL           N/A     32  30  92 CALM      30.32F

...COLUMBIA BASIN...

CITY           SKY/WX    TMP DP  RH WIND       PRES   REMARKS
EPHRATA        CLOUDY    30  28  92 N7        30.20F WCI  23
MOSES LAKE     CLOUDY    30  28  92 CALM      30.22F
TRI CITIES     CLOUDY    32  31  96 N3        30.26F
HERMISTON      CLOUDY    33  30  88 CALM      30.27F
PENDLETON      CLOUDY    38  28  67 SW10      30.25F

...EAST SLOPES CASCADES...

CITY           SKY/WX    TMP DP  RH WIND       PRES   REMARKS
THE DALLES     CLOUDY    37  34  89 SW3       30.29F
YAKIMA         CLOUDY    29  24  82 W3        30.24F
ELLENSBURG     PTCLDY    30  24  78 E6        30.18F WCI  24
WENATCHEE      MOCLDY    30  25  81 CALM      30.19F
OMAK           CLOUDY    26  22  84 CALM      30.20F

...SOUTHERN BRITISH COLUMBIA...

CITY           SKY/WX    TMP DP  RH WIND       PRES   REMARKS

...WESTERN MONTANA...

CITY           SKY/WX    TMP DP  RH WIND       PRES   REMARKS
MISSOULA       CLOUDY    25  18  74 E7        30.20F WCI  17

...NEIGHBORING CITIES...

CITY           SKY/WX    TMP DP  RH WIND       PRES   REMARKS
SEATTLE        LGT RAIN  40  37  89 SE7       30.22F



USA.gov is the U.S. government's official web portal to all federal, state and local government web resources and services.